Flag for Switzerland Weather past 2 weeks in Bülach, Zurich, Switzerland

Now
49 °F

Sprinkles. Low clouds.


Feels Like: 44 °F
Forecast: 41 / 52 °F
Wind: 15 mph from Southwest

Location: Zurich-Kloten

Current Time: Mar 30, 2015 at 12:10:44 PM

Latest Report: Mar 30, 2015 at 11:00 AM


Visibility: 5 mi

Pressure: 29.76 "Hg

Humidity: 87%

Dew point: 46 °F

Location of BülachLocation

Historic Weather in Bülach — Graph

°F

Bülach temperature yesterday

Maximum temperature yesterday: 54 °F (at 11:00 AM)
Minimum temperature yesterday: 46 °F (at 1:00 AM)
Average temperature yesterday: 50 °F

Past Weeks' High & Low Weather Summary

 TemperatureHumidityPressure
High64 °F (Mar 18, 4:00 PM)100% (Mar 20, 5:00 PM)30.34 "Hg (Mar 20, 5:00 PM)
Low29 °F (Mar 28, 5:00 AM)31% (Mar 18, 4:00 PM)29.58 "Hg (Mar 25, 2:00 PM)
Average45 °F73%30.04 "Hg
* Reported Mar 15 9:00 AM — Mar 30 10:00 AM, Bülach, Weather by CustomWeather, © 2015

Note: Actual official high and low records may vary slightly from our data, if they occured in-between our weather recording intervals... More about our weather records

Advertising

Bülach weather history for previous 24 hours

 ConditionsComfort  
Time TempWeatherWind HumidityBarometerVisibility
10:00 AM
Mon, Mar 30
49 °FCool.16 mph88%29.73 "HgN/A
9:00 AM49 °FCool.24 mph82%29.70 "HgN/A
8:00 AM49 °FOvercast.21 mph81%29.68 "Hg19 mi
7:00 AM49 °FCool.21 mph84%29.69 "HgN/A
6:00 AM48 °FCool.18 mph87%29.68 "HgN/A
5:00 AM48 °FRain. Overcast.21 mph86%29.68 "Hg4 mi
4:00 AM49 °FCool.20 mph85%29.69 "HgN/A
3:00 AM49 °FCool.21 mph81%29.71 "HgN/A
2:00 AM49 °FRain. Overcast.21 mph80%29.73 "Hg4 mi
1:00 AM49 °FCool.20 mph83%29.75 "HgN/A
12:00 AM49 °FCool.20 mph84%29.76 "HgN/A
10:00 PM
Sun, Mar 29
49 °FCool.22 mph82%29.80 "HgN/A
9:00 PM49 °FCool.21 mph85%29.81 "HgN/A
8:00 PM50 °FSprinkles. Overcast.15 mph77%29.80 "Hg19 mi
7:00 PM51 °FCool.21 mph73%29.83 "HgN/A
6:00 PM51 °FCool.20 mph72%29.85 "HgN/A
5:00 PM49 °FSprinkles. Overcast.21 mph77%29.88 "Hg16 mi
4:00 PM49 °FCool.20 mph75%29.90 "HgN/A
3:00 PM49 °FCool.16 mph77%29.91 "HgN/A
2:00 PM50 °FLight rain. Overcast.16 mph76%29.92 "Hg6 mi
1:00 PM52 °FCool.17 mph70%29.90 "HgN/A
12:00 PM53 °FCool.16 mph64%29.93 "HgN/A
Weather by CustomWeather, © 2015

See weather overviewHow to use our weather pages